Skip Page Navigation
NASA JPL Caltech
NASA Logo - Jet Propulsion Laboratory + View the NASA Portal
+ Center for Near-Earth Object Studies
JPL Home Earth Solar System Stars & Galaxies Technology
JPL Solar System Dynamics
BODIES ORBITS EPHEMERIDES TOOLS PHYSICAL DATA DISCOVERY FAQ SITE MAP
IMPORTANT: The SSD Announcement email list is now available. Major changes are coming in the near future, including possible hostname and/or URL changes. To be notified of such changes, subscribe to this email list.

Please visit this page for more details.


JPL Small-Body Database Browser
Search: [ help ]  
95323 (2002 CS108)
Classification: Main-belt Asteroid          SPK-ID: 2095323
Ephemeris | Orbit Diagram | Orbital Elements | Mission Design | Physical Parameters | Discovery Circumstances | Close-Approach Data ]

[ hide orbit diagram ]

For accurate long-term ephemerides, please instead use our Horizons system.This orbit viewer was implemented using two-body methods, and hence should not be used for determining accurate long-term trajectories (over several years or decades) or planetary encounter circumstances.


[ revert to old Java-based viewer ]

Orbital Elements at Epoch 2459000.5 (2020-May-31.0) TDB
Reference: JPL 20 (heliocentric ecliptic J2000)
 Element Value Uncertainty (1-sigma)   Units 
e .1030354569262104 3.4398e-08  
a 2.717927180745949 1.3983e-08 au
q 2.437884311785623 9.4313e-08 au
i 15.01899556729945 4.1273e-06 deg
node 166.6782333442155 1.4866e-05 deg
peri 338.4034448672906 2.6296e-05 deg
M 52.12750914743156 2.0851e-05 deg
tp 2458763.515673153104
(2019-Oct-07.01567315)
9.4533e-05 TDB
period 1636.647502637986
4.48
1.263e-05
3.458e-08
d
yr
n .219961842375798 1.6974e-09 deg/d
Q 2.997970049706275 1.5423e-08 au
  Orbit Determination Parameters
   # obs. used (total)      867  
   data-arc span      9874 days (27.03 yr)  
   first obs. used      1993-04-17  
   last obs. used      2020-04-29  
   planetary ephem.      DE431  
   SB-pert. ephem.      SB431-N16  
   condition code      0  
   norm. resid. RMS      .51512  
   source      ORB  
   producer      Otto Matic  
   solution date      2020-May-20 17:14:12  

Additional Information
 Earth MOID = 1.4537 au 
 Jupiter MOID = 2.00525 au 
 T_jup = 3.303 
[ show covariance matrix ]

Ephemeris | Orbit Diagram | Orbital Elements | Mission Design | Physical Parameters | Discovery Circumstances | Close-Approach Data ]

Physical Parameter Table
Parameter Symbol Value Units Sigma Reference Notes
absolute magnitude H 15.1   n/a MPO426596  
diameter diameter 2.867 km 0.702 urn:nasa:pds:neowise_diameters_albedos::2.0[mainbelt] (http://adsabs.harvard.edu/abs/2011ApJ...741...68M)  
geometric albedo albedo 0.258   0.215 urn:nasa:pds:neowise_diameters_albedos::2.0[mainbelt] (http://adsabs.harvard.edu/abs/2011ApJ...741...68M)  

95323 (2002 CS108)          Discovered 2002-Feb-07 by LINEAR at Socorro
Reference: 20041028/Numbers.arcLast Updated: 2004-10-29

[ show close-approach data ]
Ephemeris | Orbit Diagram | Orbital Elements | Mission Design | Physical Parameters | Discovery Circumstances | Close-Approach Data ]
ABOUT SSD CREDITS/AWARDS PRIVACY/COPYRIGHT GLOSSARY LINKS
FirstGov 2020-Jun-03 17:25 UT
(server date/time)  
NASA Home Page
Site Manager:   Ryan S. Park
Webmaster  Alan B. Chamberlin